Regional Weather Roundup
Issued by NWS

Home | Current Version | Previous Version | Graphics & Text | Print | Product List | Glossary On
Versions: 1 2 3 4 5 6 7 8 9 10 11 12 13 14 15 16 17 18 19 20 21 22 23 24 25 26 27 28 29 30 31 32 33 34 35 36 37 38 39 40 41 42 43 44 45 46 47 48 49 50
000
ASUS44 KMEG 171610
RWRTN
TENNESSEE HOURLY STATE WEATHER ROUNDUP
NATIONAL WEATHER SERVICE MEMPHIS TN
1100 AM CDT WED SEP 17 2014

TNZ002-004-019-021-049-052-054-088>092-171700-
WEST TENNESSEE

CITY           SKY/WX    TMP DP  RH WIND       PRES   REMARKS
MEMPHIS INTL   CLOUDY    71  57  61 E6        30.04R
NWS MEMPHIS      N/A     69 N/A N/A MISG        N/A
JACKSON        CLOUDY    68  56  65 E3        30.04S
DYERSBURG      CLOUDY    63  48  59 CALM      30.07R
UNION CITY     SUNNY     63  55  77 S3        30.05S
PARIS          SUNNY     64  54  68 CALM      30.07R
HUNTINGDON     CLOUDY    65  54  67 CALM      30.06S
LEXINGTON      SUNNY     68  55  64 CALM      30.04R
SAVANNAH       SUNNY     70  59  68 VRB6      30.04S
$$

TNZ008-025-027-028-033-062-065-066-171700-
NORTH MIDDLE TENNESSEE

CITY           SKY/WX    TMP DP  RH WIND       PRES   REMARKS
NASHVILLE      CLOUDY    64  57  78 N5        30.06S
DICKSON        MOSUNNY   63  57  82 CALM      30.04S
PORTLAND       CLOUDY    57  55  94 VRB3      30.05R
CLARKSVILLE    CLOUDY    59  56  89 CALM      30.05S FOG
SMYRNA         PTSUNNY   64  56  75 CALM      30.06S
MURFREESBORO   MOSUNNY   65  57  75 CALM      30.04
COOKEVILLE     MOSUNNY   68  55  64 E5        30.04R
LIVINGSTON     MOSUNNY   63  51  64 CALM      30.04
GALLATIN       CLOUDY    61  58  90 CALM      30.07R
CROSSVILLE     MOSUNNY   64  51  62 CALM      30.05R
$$

TNZ061-075-076-078-094-096-097-171700-
SOUTH MIDDLE TENNESSEE

CITY           SKY/WX    TMP DP  RH WIND       PRES   REMARKS
LEWISBURG      CLOUDY    58  56  93 CALM      30.05R
FAYETTEVILLE   MOSUNNY   68  55  64 N6        30.03R
TULLAHOMA      MOSUNNY   66  55  68 VRB3      30.04S
WINCHESTER     MOSUNNY   68  57  68 N5        30.03S
MCMINNVILLE    MOSUNNY   68  61  77 NE7       30.04R
COLUMBIA       CLOUDY    61  59  94 N3        30.04S
SHELBYVILLE    PTSUNNY   68  61  77 NW5       30.05S
$$

TNZ017-018-042-046-047-171700-
NORTHEAST TENNESSEE

CITY           SKY/WX    TMP DP  RH WIND       PRES   REMARKS
TRI CITIES     MOSUNNY   71  56  58 CALM      30.00F
ELIZABETHTON   MOSUNNY   70  57  64 VRB3      29.99F
$$

TNZ012-013-036-069-073-074-171700-
CENTRAL EAST TENNESSEE

CITY           SKY/WX    TMP DP  RH WIND       PRES   REMARKS
KNOXVILLE      MOSUNNY   70  57  63 N5        29.98F
OAK RIDGE      SUNNY     71  55  56 E5        30.01F
GATLINBURG     CLOUDY    68  57  68 N3        29.98S
MORRISTOWN       N/A     70  59  68 N3        29.99F
$$

TNZ083-085-099-171700-
SOUTHEAST TENNESSEE

CITY           SKY/WX    TMP DP  RH WIND       PRES   REMARKS
CHATTANOOGA    PTSUNNY   73  56  54 NE5       30.00R
$$

SKY/WX REPORTED AS FAIR MEANS FEW OR NO CLOUDS BELOW
12 THOUSAND FEET.



USA.gov is the U.S. government's official web portal to all federal, state and local government web resources and services.